Location: Góry Miechowskie
(50.3599°N, 20.1803°E)
Time: 21:58:23
(UTC+00:00)

Tiros 1 despin weight - Pass Details

Date: 22 September 2024
Orbit: 572 x 614 km, 48.2° (Epoch: 12 October)

Event Time Altitude Azimuth Distance (km) Brightness Sun altitude
Rises 22:19:33 0° 206° (SSW) 2,826 - -39.7°
Reaches altitude 10° 22:22:22 10° 188° (S) 1,937 - -39.8°
Maximum altitude 22:25:28 19° 143° (SE) 1,463 - -39.8°
Drops below altitude 10° 22:28:36 10° 99° (E) 1,961 - -39.8°
Sets 22:31:28 0° 81° (E) 2,875 - -39.8°
